Location: ????????
(56.1167°N, 38.6333°E)
Time: 10:44:38
(UTC+00:00)

Cosmos 1346 Rocket - Pass Details

Date: 15 February 2026
Orbit: 476 x 485 km, 81.2° (Epoch: 11 March)

Event Time Altitude Azimuth Distance (km) Brightness Sun altitude
Rises 02:43:25 0° 347° (NNW) 2,567 6.2 -18.3°
Reaches altitude 10° 02:45:34 10° 352° (N) 1,683 5.3 -18.0°
Maximum altitude 02:49:12 56° 72° (ENE) 585 3.2 -17.5°
Drops below altitude 10° 02:52:49 10° 152° (SSE) 1,674 5.6 -17.0°
Sets 02:54:57 0° 156° (SSE) 2,552 6.5 -16.7°
